TimeCDT,TemperatureF,Dew PointF,Humidity,Sea Level PressureIn,VisibilityMPH,Wind Direction,Wind SpeedMPH,Gust SpeedMPH,PrecipitationIn,Events,Conditions,WindDirDegrees,DateUTC
12:53 AM,59.0,34.0,39,30.04,10.0,NE,9.2,-,N/A,,Clear,50,2013-03-21 05:53:00
1:53 AM,57.9,33.1,39,30.03,10.0,ENE,8.1,-,N/A,,Clear,60,2013-03-21 06:53:00
2:53 AM,55.9,37.9,51,30.03,10.0,ENE,4.6,-,N/A,,Clear,70,2013-03-21 07:53:00
3:53 AM,55.9,42.1,60,30.01,10.0,ENE,6.9,-,N/A,,Clear,60,2013-03-21 08:53:00
4:53 AM,54.0,43.0,66,29.99,10.0,ENE,4.6,-,N/A,,Clear,60,2013-03-21 09:53:00
5:53 AM,53.1,44.1,71,29.99,10.0,ENE,5.8,-,N/A,,Clear,60,2013-03-21 10:53:00
6:53 AM,51.1,44.1,77,29.97,10.0,East,6.9,-,N/A,,Clear,80,2013-03-21 11:53:00
7:53 AM,55.0,45.0,69,29.99,10.0,East,6.9,-,N/A,,Scattered Clouds,100,2013-03-21 12:53:00
8:53 AM,60.1,46.9,62,30.00,10.0,ESE,11.5,-,N/A,,Partly Cloudy,110,2013-03-21 13:53:00
9:53 AM,64.0,46.9,54,29.99,10.0,ESE,16.1,21.9,N/A,,Scattered Clouds,110,2013-03-21 14:53:00
10:53 AM,68.0,44.1,42,29.98,10.0,SE,18.4,26.5,N/A,,Clear,130,2013-03-21 15:53:00
11:53 AM,69.1,46.9,45,29.96,10.0,SSE,20.7,27.6,N/A,,Mostly Cloudy,150,2013-03-21 16:53:00
12:53 PM,69.1,48.0,47,29.94,10.0,SE,19.6,27.6,N/A,,Scattered Clouds,140,2013-03-21 17:53:00
1:53 PM,70.0,51.1,51,29.90,10.0,SE,21.9,28.8,N/A,,Scattered Clouds,130,2013-03-21 18:53:00
2:53 PM,69.1,52.0,54,29.86,10.0,SE,17.3,28.8,N/A,,Mostly Cloudy,140,2013-03-21 19:53:00
3:53 PM,68.0,52.0,56,29.83,10.0,SSE,16.1,28.8,N/A,,Mostly Cloudy,150,2013-03-21 20:53:00
4:53 PM,66.0,52.0,60,29.81,10.0,SE,20.7,28.8,N/A,,Overcast,130,2013-03-21 21:53:00
5:53 PM,66.0,52.0,60,29.78,10.0,SE,20.7,29.9,N/A,,Mostly Cloudy,130,2013-03-21 22:53:00
6:53 PM,64.0,54.0,70,29.79,10.0,SE,19.6,25.3,N/A,,Overcast,130,2013-03-21 23:53:00
7:53 PM,64.0,55.0,73,29.78,10.0,SE,13.8,24.2,N/A,,Overcast,130,2013-03-22 00:53:00
8:53 PM,64.0,55.9,75,29.76,10.0,SE,19.6,26.5,N/A,,Overcast,140,2013-03-22 01:53:00
9:53 PM,64.9,57.0,75,29.78,10.0,SSE,16.1,26.5,N/A,,Overcast,150,2013-03-22 02:53:00
10:53 PM,64.9,57.9,78,29.78,10.0,SSE,15.0,-,N/A,,Overcast,150,2013-03-22 03:53:00
11:53 PM,66.0,59.0,78,29.78,10.0,SSE,12.7,-,N/A,,Overcast,150,2013-03-22 04:53:00